Flag for Canada Weather past 2 weeks in Sherbrooke, Quebec, Canada

Now
61 °F

Fog.


Feels Like: 61 °F
Forecast: 63 / 80 °F
Wind: 5 mph from East

Location: Sherbrooke

Current Time: Sep 2, 2014 at 1:11:21 AM

Latest Report: Sep 2, 2014 at 12:00 AM


Visibility: 3 mi

Pressure: 29.91 "Hg

Humidity: 100%

Dew point: 61 °F

Location of SherbrookeLocation

Historic Weather in Sherbrooke — Graph

°F

Sherbrooke temperature yesterday

Maximum temperature yesterday: 79 °F (at 5:00 PM)
Minimum temperature yesterday: 63 °F (at 10:54 PM)
Average temperature yesterday: 69 °F

Past Weeks' High & Low Weather Summary

 TemperatureHumidityPressure
High82 °F (Aug 25, 2:00 PM)100% (Aug 18, 12:00 AM)30.23 "Hg (Aug 18, 12:00 AM)
Low46 °F (Aug 19, 1:01 AM)38% (Aug 29, 3:00 PM)29.82 "Hg (Aug 18, 2:03 AM)
Average64 °F80%30.04 "Hg
* Reported Midnight between Aug 17 and Aug 18 — Midnight between Sep 1 and Sep 2, Sherbrooke, Weather by CustomWeather, © 2014

Note: Actual official high and low records may vary slightly from our data, if they occured in-between our weather recording intervals... More about our weather records

Advertising

Sherbrooke weather history for previous 24 hours

 ConditionsComfort  
Time TempWeatherWind HumidityBarometerVisibility
12:00 AM
Sep 2
61 °FFog.5 mph100%29.91 "Hg3 mi
11:03 PM
Sep 1
63 °FFog.3 mph94%29.92 "Hg5 mi
10:54 PM63 °FFog.2 mph100%29.92 "Hg6 mi
10:00 PM64 °FFog.No wind94%29.92 "Hg5 mi
9:55 PM64 °FFog.No wind94%29.92 "Hg5 mi
9:00 PM64 °FClear.2 mph100%29.93 "Hg9 mi
8:00 PM66 °FFog.No wind94%29.92 "Hg6 mi
7:00 PM72 °FSunny.No wind88%29.90 "Hg7 mi
6:00 PM77 °FPassing clouds.5 mph65%29.90 "Hg9 mi
5:00 PM79 °FPassing clouds.5 mph61%29.91 "Hg9 mi
4:00 PM77 °FPassing clouds.3 mph65%29.92 "Hg9 mi
3:00 PM77 °FPartly sunny.8 mph65%29.93 "Hg9 mi
2:00 PM75 °FPassing clouds.7 mph69%29.95 "Hg9 mi
1:00 PM73 °FMostly cloudy.6 mph78%29.96 "Hg9 mi
12:00 PM73 °FMore clouds than sun.7 mph78%29.96 "Hg9 mi
11:00 AM72 °FCloudy.8 mph83%29.96 "Hg9 mi
10:00 AM72 °FPartly sunny.6 mph83%29.96 "Hg9 mi
9:00 AM68 °FLight rain. Mostly cloudy.2 mph94%29.96 "Hg9 mi
8:55 AM68 °FRain. Mostly cloudy.No wind94%29.96 "Hg9 mi
8:00 AM68 °FLight rain. Overcast.2 mph94%29.97 "Hg7 mi
7:00 AM68 °FMostly cloudy.2 mph94%29.96 "Hg9 mi
6:00 AM66 °FMostly cloudy.3 mph94%29.96 "Hg9 mi
5:00 AM66 °FMostly cloudy.5 mph94%29.94 "Hg9 mi
4:50 AM66 °FMostly cloudy.5 mph94%29.94 "Hg9 mi
4:00 AM68 °FMostly cloudy.3 mph94%29.93 "Hg9 mi
3:00 AM68 °FPassing clouds.5 mph94%29.91 "Hg9 mi
2:47 AM68 °FPassing clouds.6 mph94%29.90 "Hg9 mi
2:00 AM68 °FFog.3 mph94%29.90 "Hg6 mi
1:00 AM66 °FFog.3 mph100%29.91 "Hg5 mi
Weather by CustomWeather, © 2014

See weather overviewHow to use our weather pages